TimeMDT,TemperatureF,Dew PointF,Humidity,Sea Level PressureIn,VisibilityMPH,Wind Direction,Wind SpeedMPH,Gust SpeedMPH,PrecipitationIn,Events,Conditions,WindDirDegrees,DateUTC
12:15 AM,70.9,49.6,47,29.77,10.0,West,13.8,24.2,N/A,,Scattered Clouds,260,2013-06-23 06:15:00
12:35 AM,77.9,43.7,30,29.79,10.0,NW,21.9,27.6,N/A,Thunderstorm,Clear,310,2013-06-23 06:35:00
12:55 AM,71.1,53.1,53,29.84,10.0,SE,16.1,28.8,N/A,Thunderstorm,Scattered Clouds,130,2013-06-23 06:55:00
1:15 AM,68.2,52.7,58,29.86,10.0,SE,10.4,17.3,N/A,,Mostly Cloudy,130,2013-06-23 07:15:00
1:35 AM,66.7,54.9,66,29.82,4.0,ENE,12.7,-,N/A,,Haze,70,2013-06-23 07:35:00
1:55 AM,70.3,50.2,49,29.70,10.0,ENE,11.5,16.1,N/A,,Scattered Clouds,60,2013-06-23 07:55:00
2:15 AM,70.9,51.3,50,29.83,10.0,WSW,25.3,34.5,N/A,,Clear,250,2013-06-23 08:15:00
2:35 AM,66.2,54.7,66,29.84,10.0,WSW,10.4,-,N/A,,Clear,250,2013-06-23 08:35:00
2:55 AM,63.0,55.4,76,29.85,10.0,NW,15.0,24.2,N/A,,Clear,310,2013-06-23 08:55:00
3:15 AM,61.9,55.2,79,29.85,10.0,NNW,11.5,20.7,N/A,,Clear,340,2013-06-23 09:15:00
3:35 AM,61.2,55.0,80,29.87,10.0,NNW,9.2,-,N/A,,Clear,340,2013-06-23 09:35:00
3:55 AM,60.8,54.9,81,29.88,10.0,Calm,Calm,-,N/A,,Clear,0,2013-06-23 09:55:00
4:15 AM,60.8,54.5,80,29.90,10.0,North,3.5,-,N/A,,Clear,350,2013-06-23 10:15:00
4:35 AM,60.3,54.1,80,29.90,10.0,Calm,Calm,-,N/A,,Clear,0,2013-06-23 10:35:00
4:55 AM,59.4,54.0,82,29.91,10.0,North,3.5,-,N/A,,Clear,350,2013-06-23 10:55:00
5:15 AM,59.0,54.3,84,29.92,10.0,North,8.1,-,N/A,,Clear,350,2013-06-23 11:15:00
5:35 AM,59.7,54.7,83,29.92,10.0,North,11.5,-,N/A,,Clear,350,2013-06-23 11:35:00
5:55 AM,60.4,54.9,82,29.93,10.0,NNW,11.5,-,N/A,,Clear,340,2013-06-23 11:55:00
6:15 AM,61.0,55.4,82,29.93,10.0,NNW,9.2,-,N/A,,Clear,330,2013-06-23 12:15:00
6:35 AM,61.7,55.8,81,29.94,10.0,NNW,8.1,-,N/A,,Clear,330,2013-06-23 12:35:00
6:55 AM,62.6,55.9,79,29.94,10.0,NNW,10.4,-,N/A,,Clear,340,2013-06-23 12:55:00
7:15 AM,63.1,56.1,78,29.95,10.0,NNW,12.7,-,N/A,,Clear,340,2013-06-23 13:15:00
7:35 AM,63.7,56.3,77,29.95,10.0,NNW,12.7,-,N/A,,Clear,330,2013-06-23 13:35:00
7:55 AM,64.4,56.5,75,29.95,10.0,NNW,15.0,-,N/A,,Clear,330,2013-06-23 13:55:00
8:15 AM,65.5,57.0,74,29.97,10.0,North,6.9,-,N/A,,Clear,360,2013-06-23 14:15:00
8:35 AM,66.2,56.7,71,29.98,10.0,North,10.4,-,N/A,,Clear,350,2013-06-23 14:35:00
8:55 AM,67.1,56.8,70,29.98,10.0,North,9.2,-,N/A,,Clear,350,2013-06-23 14:55:00
9:15 AM,68.0,57.7,70,29.97,10.0,North,9.2,-,N/A,,Clear,350,2013-06-23 15:15:00
9:35 AM,69.4,58.1,67,29.97,10.0,North,10.4,17.3,N/A,,Clear,350,2013-06-23 15:35:00
9:55 AM,69.6,58.1,67,29.97,10.0,NNE,6.9,-,N/A,,Clear,20,2013-06-23 15:55:00
10:15 AM,70.0,57.2,64,29.98,10.0,NW,4.6,-,N/A,,Clear,320,2013-06-23 16:15:00
10:35 AM,71.1,56.7,60,29.97,10.0,ENE,6.9,-,N/A,,Clear,60,2013-06-23 16:35:00
10:55 AM,71.8,57.4,60,29.98,10.0,NNE,4.6,-,N/A,,Clear,30,2013-06-23 16:55:00
11:15 AM,72.5,56.5,57,29.97,10.0,NNE,5.8,-,N/A,,Clear,20,2013-06-23 17:15:00
11:35 AM,73.4,57.0,56,29.97,10.0,NE,3.5,-,N/A,,Clear,50,2013-06-23 17:35:00
11:55 AM,74.5,56.5,53,29.96,10.0,NE,5.8,-,N/A,,Clear,40,2013-06-23 17:55:00
12:15 PM,74.7,56.5,53,29.96,10.0,ENE,3.5,-,N/A,,Clear,70,2013-06-23 18:15:00
12:35 PM,76.1,57.2,52,29.96,10.0,ENE,8.1,-,N/A,,Clear,70,2013-06-23 18:35:00
12:55 PM,76.1,57.4,52,29.95,10.0,East,8.1,-,N/A,,Clear,80,2013-06-23 18:55:00
1:15 PM,76.8,56.3,49,29.95,10.0,ESE,5.8,-,N/A,,Clear,110,2013-06-23 19:15:00
1:35 PM,77.5,55.8,47,29.94,10.0,East,4.6,-,N/A,,Clear,90,2013-06-23 19:35:00
1:55 PM,78.3,58.5,50,29.94,10.0,East,6.9,-,N/A,,Clear,80,2013-06-23 19:55:00
2:15 PM,77.9,57.6,49,29.94,10.0,ESE,10.4,-,N/A,,Clear,110,2013-06-23 20:15:00
2:35 PM,78.6,57.9,49,29.93,10.0,East,6.9,-,N/A,,Clear,100,2013-06-23 20:35:00
2:55 PM,78.6,55.9,46,29.93,10.0,East,3.5,-,N/A,,Clear,100,2013-06-23 20:55:00
3:15 PM,79.3,57.0,46,29.92,10.0,ESE,5.8,-,N/A,,Clear,110,2013-06-23 21:15:00
3:35 PM,79.3,57.0,46,29.91,10.0,East,9.2,-,N/A,,Clear,100,2013-06-23 21:35:00
3:55 PM,79.9,55.8,43,29.91,10.0,ENE,8.1,-,N/A,,Clear,70,2013-06-23 21:55:00
4:15 PM,80.6,55.8,42,29.89,10.0,East,8.1,-,N/A,,Clear,90,2013-06-23 22:15:00
4:35 PM,81.7,53.8,38,29.88,10.0,ESE,10.4,-,N/A,,Clear,120,2013-06-23 22:35:00
4:55 PM,81.7,53.2,37,29.87,10.0,ENE,9.2,-,N/A,,Clear,70,2013-06-23 22:55:00
5:15 PM,81.9,55.8,41,29.87,10.0,ESE,10.4,-,N/A,,Clear,110,2013-06-23 23:15:00
5:35 PM,82.6,53.2,36,29.87,10.0,East,8.1,-,N/A,,Clear,100,2013-06-23 23:35:00
5:55 PM,82.9,52.9,35,29.86,10.0,SE,10.4,-,N/A,,Clear,130,2013-06-23 23:55:00
6:15 PM,82.8,54.3,37,29.86,10.0,SSE,9.2,-,N/A,,Clear,150,2013-06-24 00:15:00
6:35 PM,82.2,55.9,40,29.86,10.0,SSE,8.1,-,N/A,,Clear,160,2013-06-24 00:35:00
6:55 PM,81.7,55.9,41,29.86,10.0,SSE,8.1,-,N/A,,Clear,150,2013-06-24 00:55:00
7:15 PM,79.3,57.4,47,29.87,10.0,SSE,5.8,-,N/A,,Clear,150,2013-06-24 01:15:00
7:35 PM,77.2,57.9,51,29.88,10.0,SSE,4.6,-,N/A,,Clear,150,2013-06-24 01:35:00
7:55 PM,75.6,57.7,54,29.88,10.0,SSE,4.6,-,N/A,,Clear,150,2013-06-24 01:55:00
8:15 PM,74.5,58.6,58,29.88,10.0,SE,4.6,-,N/A,,Clear,130,2013-06-24 02:15:00
8:35 PM,73.6,59.9,62,29.89,10.0,SSE,4.6,-,N/A,,Clear,150,2013-06-24 02:35:00
8:55 PM,72.7,60.8,66,29.89,10.0,ESE,5.8,-,N/A,,Clear,110,2013-06-24 02:55:00
9:15 PM,71.8,61.3,70,29.91,10.0,Calm,Calm,-,N/A,,Clear,0,2013-06-24 03:15:00
9:35 PM,70.3,61.9,74,29.94,10.0,South,3.5,-,N/A,,Clear,170,2013-06-24 03:35:00
9:55 PM,71.8,61.7,70,29.94,10.0,SSE,4.6,-,N/A,,Clear,150,2013-06-24 03:55:00
10:15 PM,71.2,62.2,73,29.92,10.0,SE,9.2,-,N/A,,Clear,140,2013-06-24 04:15:00
10:35 PM,71.1,63.0,75,29.92,10.0,SE,8.1,-,N/A,,Clear,140,2013-06-24 04:35:00
10:55 PM,70.7,63.5,78,29.92,10.0,SSE,8.1,-,N/A,,Clear,150,2013-06-24 04:55:00
11:15 PM,70.3,63.9,80,29.89,10.0,SSE,9.2,-,N/A,Thunderstorm,Clear,150,2013-06-24 05:15:00
11:35 PM,70.0,63.9,81,29.89,10.0,South,10.4,-,N/A,Thunderstorm,Thunderstorm,180,2013-06-24 05:35:00
11:55 PM,70.7,63.5,78,29.88,10.0,SSE,10.4,17.3,N/A,Thunderstorm,Scattered Clouds,160,2013-06-24 05:55:00